Location: Bo?a Wola
(50.4192°N, 19.7966°E)
Time: 12:46:33
(UTC+00:00)

SL-24 DEB - Pass Details

Date: 15 June 2024
Orbit: 650 x 679 km, 92.0° (Epoch: 16 July)

Event Time Altitude Azimuth Distance (km) Brightness Sun altitude
Rises 01:21:23 0° 4° (N) 2,989 8.6 -8.2°
Reaches altitude 10° 01:23:37 10° 4° (N) 2,075 7.7 -8.0°
Maximum altitude 01:28:10 85° 279° (W) 666 4.2 -7.6°
Drops below altitude 10° 01:32:44 10° 188° (S) 2,073 6.2 -7.1°
Enters shadow 01:33:54 - 188° (S) 2,545 6.7 -7.0°
